This is the latest recevied weather packets stored in our database for station/object K9MWD. If no packets are shown the sender has not sent any weather packets the latest 10 day(s).
| Time | Temp. | Humidity | Pressure | Rain* | Wind** | Luminosity | Snow |
|---|---|---|---|---|---|---|---|
| 1776981786 | 27.78° C | 67% | 1007.2 hPa | 0 mm | - | 611 W/m² | - |
| 1776981482 | 27.22° C | 66% | 1007.2 hPa | 0 mm | - | 434 W/m² | - |
| 1776981178 | 27.22° C | 66% | 1007.2 hPa | 0 mm | - | 322 W/m² | - |
| 1776980878 | 27.78° C | 67% | 1007.3 hPa | 0 mm | - | 203 W/m² | - |
| 1776980577 | 27.78° C | 66% | 1007.1 hPa | 0 mm | - | 590 W/m² | - |
| 1776980272 | 27.22° C | 67% | 1007.1 hPa | 0 mm | - | 339 W/m² | - |
| 1776979969 | 26.67° C | 68% | 1007.4 hPa | 0 mm | - | 246 W/m² | - |
| 1776979664 | 26.67° C | 68% | 1007.8 hPa | 0 mm | - | 276 W/m² | - |
| 1776979361 | 26.67° C | 69% | 1007.8 hPa | 0 mm | - | 252 W/m² | - |
| 1776979058 | 26.67° C | 69% | 1007.8 hPa | 0 mm | - | 364 W/m² | - |
| 1776978754 | 26.67° C | 69% | 1008 hPa | 0 mm | - | 364 W/m² | - |
| 1776978452 | 27.22° C | 69% | 1007.7 hPa | 0 mm | - | 260 W/m² | - |
| 1776978150 | 26.67° C | 69% | 1008.1 hPa | 0 mm | - | 221 W/m² | - |
| 1776977847 | 26.67° C | 70% | 1008.2 hPa | 0 mm | - | 333 W/m² | - |
| 1776977543 | 27.22° C | 69% | 1008.3 hPa | 0 mm | - | 338 W/m² | - |
| 1776977238 | 27.22° C | 69% | 1008.4 hPa | 0 mm | - | 592 W/m² | - |
| 1776976936 | 27.78° C | 68% | 1008.4 hPa | 0 mm | - | 328 W/m² | - |
| 1776976631 | 27.22° C | 68% | 1008.6 hPa | 0 mm | - | 914 W/m² | - |
| 1776976327 | 27.78° C | 68% | 1008.8 hPa | 0 mm | - | 905 W/m² | - |
| 1776976022 | 26.67° C | 68% | 1008.8 hPa | 0 mm | - | 576 W/m² | - |
| 1776975719 | 26.11° C | 70% | 1008.8 hPa | 0 mm | - | 393 W/m² | - |
| 1776975416 | 26.67° C | 71% | 1009 hPa | 0 mm | - | 455 W/m² | - |
| 1776975113 | 26.67° C | 70% | 1009 hPa | 0 mm | - | 494 W/m² | - |
| 1776974810 | 25.56° C | 73% | 1008.9 hPa | 0 mm | - | 425 W/m² | - |
| 1776974507 | 25.56° C | 72% | 1009.2 hPa | 0 mm | - | 205 W/m² | - |
* Rain latest hour (hover to see other rain measurements)
** Current wind speed in m/s (hover to see current wind gust speed)